Weather History for Estherville, IA

Change the Weather History Date:

Friday, September 14, 2012

  Actual Average Record
Temperature  
Mean Temperature 63 °F 62 °F  
Max Temperature 79 °F 74 °F 88 °F (1948)
Min Temperature 47 °F 49 °F 34 °F (1996)
Degree Days  
Heating Degree Days 2 5  
Month to date heating degree days 15 47  
Since 1 July heating degree days 46 79  
Cooling Degree Days 0 2  
Month to date cooling degree days 50 34  
Year to date cooling degree days 886 574  
Growing Degree Days 15 (Base 50)    
Moisture  
Dew Point 43 °F    
Average Humidity 47    
Maximum Humidity 71    
Minimum Humidity 23    
Precipitation  
Precipitation 0.00 in 0.12 in 4.30 in (2004)
Month to date precipitation 0.21 1.46  
Sea Level Pressure  
Sea Level Pressure 30.27 in    
Wind  
Wind Speed 7 mph (SSW)    
Max Wind Speed 14 mph    
Max Gust Speed 33 mph    
Visibility 10 miles    
Events      
T = Trace of Precipitation, MM = Missing Value Source: NWS Daily Summary

Daily Weather History Graph

Daily Weather History Graph

Search for Another Location

Airport:

Trip Planner

Search our weather history database for the weather conditions in past years. The results will help you decide how hot, cold, wet, or windy it might be!

Date:

Astronomy

Sep. 14, 2012 Rise Set
Actual Time 6:57 AM CDT 7:29 PM CDT
Civil Twilight 6:29 AM CDT 7:58 PM CDT
Nautical Twilight 5:55 AM CDT 8:32 PM CDT
Astronomical Twilight 5:20 AM CDT 9:07 PM CDT
Moon 5:21 AM CDT (9/14) 6:27 PM CDT (9/14)
Length of Visible Light 13h 29m
Length of Day
12h 32m
Waning Crescent, 2% of the Moon is Illuminated
Sep 14
Waning Crescent
Sep 15
New
Sep 22
First Quarter
Sep 29
Full
Oct 8
Last Quarter

Hourly Weather History & Observations

Time (CDT) Temp. Dew Point Humidity Pressure Visibility Wind Dir Wind Speed Gust Speed Precip Events Conditions
12:52 AM 55.9 °F 45.0 °F 67% 30.30 in 10.0 mi WSW 10.4 mph - N/A   Clear
1:52 AM 55.0 °F 45.0 °F 69% 30.30 in 10.0 mi WSW 9.2 mph - N/A   Clear
2:52 AM 54.0 °F 45.0 °F 72% 30.29 in 10.0 mi WSW 10.4 mph - N/A   Clear
3:52 AM 55.0 °F 45.0 °F 69% 30.28 in 10.0 mi WSW 10.4 mph - N/A   Clear
4:52 AM 54.0 °F 45.0 °F 72% 30.27 in 10.0 mi WSW 10.4 mph - N/A   Clear
5:52 AM 53.1 °F 44.1 °F 71% 30.28 in 10.0 mi WSW 9.2 mph - N/A   Clear
6:52 AM 52.0 °F 42.1 °F 69% 30.30 in 10.0 mi West 8.1 mph - N/A   Clear
7:52 AM 52.0 °F 43.0 °F 71% 30.32 in 10.0 mi WSW 4.6 mph - N/A   Clear
8:52 AM 57.0 °F 44.1 °F 62% 30.32 in 10.0 mi WSW 4.6 mph - N/A   Clear
9:52 AM 61.0 °F 45.0 °F 56% 30.32 in 10.0 mi NW 3.5 mph - N/A   Clear
10:52 AM 66.0 °F 44.1 °F 45% 30.32 in 10.0 mi Calm Calm - N/A   Clear
11:52 AM 71.1 °F 45.0 °F 39% 30.31 in 10.0 mi Variable 6.9 mph - N/A   Clear
12:52 PM 73.9 °F 42.1 °F 32% 30.30 in 10.0 mi ESE 11.5 mph - N/A   Clear
2:52 PM 78.1 °F 39.9 °F 25% 30.26 in 10.0 mi SSE 9.2 mph 16.1 mph N/A   Clear
3:52 PM 78.1 °F 37.9 °F 24% 30.25 in 10.0 mi Variable 6.9 mph 19.6 mph N/A   Clear
4:52 PM 78.1 °F 39.0 °F 25% 30.24 in 10.0 mi SSE 4.6 mph - N/A   Clear
5:52 PM 77.0 °F 39.9 °F 26% 30.23 in 10.0 mi SSE 4.6 mph - N/A   Clear
6:52 PM 73.9 °F 42.1 °F 32% 30.22 in 10.0 mi ESE 3.5 mph - N/A   Clear
7:52 PM 64.0 °F 43.0 °F 46% 30.23 in 10.0 mi East 5.8 mph - N/A   Clear
8:52 PM 64.9 °F 41.0 °F 42% 30.22 in 10.0 mi East 6.9 mph - N/A   Clear
9:52 PM 57.0 °F 43.0 °F 59% 30.24 in 10.0 mi SSE 5.8 mph - N/A   Clear
10:52 PM 55.0 °F 43.0 °F 64% 30.24 in 10.0 mi South 8.1 mph - N/A   Clear
11:52 PM 54.0 °F 45.0 °F 72% 30.22 in 10.0 mi South 6.9 mph - N/A   Clear